Погода в Митилини

Греция     39°06′19″N   26°33′20″E
темп.,
°C
ветер,
м/с
пор.,
м/с
влажн.,
%
обл.,
%
осадки,
мм/ч
давл.,
гПа
погр.,
м
29 июля, чт
чт2900:00+28с713390 0.0 1012237
03:00+27с713420 0.0 1011211
06:00+25с610460 0.0 1011157
09:00+28ссв610400 0.0 1011331
12:00+33ссв811300 0.0 1011709
15:00+34с710270 0.0 10091121
18:00+34ссв812290 0.0 1008999
21:00+31ссв714350 0.0 1009298
30 июля, пт
пт3000:00+28с610420 0.0 1009174
03:00+27ссз611430 0.0 1008163
06:00+27с59450 0.0 1008102
09:00+29с610370 0.0 1009275
12:00+34с710280 0.0 1009639
15:00+36с810230 0.0 10071415
18:00+34ссв710280 0.0 1006944
21:00+30с57380 0.0 100793
31 июля, сб
сб3100:00+29с44430 0.0 100831
03:00+29ссз44400 0.0 100727
06:00+27с44440 0.0 100731
09:00+30с34380 0.0 1008162
12:00+33св13330 0.0 1008817
15:00+36сз35300 0.0 10061368
18:00+36ссз69280 0.0 1005415
21:00+30с33400 0.0 100633
1 августа, вс
вс100:00+29ссз33450 0.0 100722
03:00+28с22460 0.0 100713
06:00+27с34460 0.0 100726
09:00+30ссв33380 0.0 1008193
12:00+33св13330 0.0 1008768
15:00+36сз35300 0.0 10061177
18:00+36сз57300 0.0 1006491
21:00+30с23440 0.0 100740
2 августа, пн
пн200:00+27сз22530 0.0 100823
03:00+27с33470 0.0 100817
06:00+27ссз23470 0.0 100822
09:00+30ссв34410 0.0 1008176
12:00+32всв13370 0.0 1008585
15:00+34з25350 0.0 10061141
18:00+35зсз34330 0.0 1005742
21:00+29ссв11460 0.0 100611